Regional Weather Roundup
Issued by NWS Grand Forks, ND

Home | Current Version | Previous Version | Text Only | Print | Product List | Glossary On
Versions: 1 2 3 4 5 6 7 8 9 10 11 12 13 14 15 16 17 18 19 20 21 22 23 24 25 26 27 28 29 30 31 32 33 34 35 36 37 38 39 40 41 42 43 44 45 46 47 48 49 50
000
ASUS43 KFGF 070031
RWRFGF
PRAIRIE TO PINES  WEATHER ROUNDUP
NATIONAL WEATHER SERVICE EASTERN NORTH DAKOTA/GRAND FORKS ND
700 PM CDT WED MAY 06 2015

 **SATELLITE DATA USED TO AUGMENT SKY COVER AT AUTOMATED STATIONS**
 *****  WEATHER ACROSS EASTERN NORTH DAKOTA  *****

CITY           SKY/WX    TMP DP  RH WIND       PRES   REMARKS
GRAND FORKS    LGT RAIN  63  60  90 E9        29.72F
6HR MIN TEMP:  62; 6HR MAX TEMP:  63; 6HR PCP:  0.15;

GRAND FRKS AFB CLOUDY    62  60  94 E9        29.72F
GRAND FRKS NWS   N/A     61 N/A N/A E9          N/A
DEVILS LAKE    CLOUDY    61  55  82 SE14      29.68F
6HR MIN TEMP:  57; 6HR MAX TEMP:  61; 6HR PCP:  0.01;

FARGO          LGT RAIN  64  60  87 E14       29.69F
WAHPETON ARPT  CLOUDY    64  61  88 SE13      29.68F
$$

 ***** WEATHER ACROSS CENTRAL AND WESTERN NORTH DAKOTA  *****

CITY           SKY/WX    TMP DP  RH WIND       PRES   REMARKS
BISMARCK       CLOUDY    68  58  70 SE14      29.60F
6HR MIN TEMP:  63; 6HR MAX TEMP:  71; 6HR PCP:  0.01;

MINOT          LGT RAIN  61  58  90 NW7       29.61F
6HR MIN TEMP:  58; 6HR MAX TEMP:  63; 6HR PCP:  0.27;

JAMESTOWN      CLOUDY    61  59  93 E17       29.63F FOG
6HR MIN TEMP:  60; 6HR MAX TEMP:  63; 6HR PCP:  0.28;

MINOT AFB      CLOUDY    63 N/A N/A NW10      29.61S
GARRISON         N/A     62  59  90 E6        29.63R
WILLISTON      LGT RAIN  52  49  89 N18G25    29.72S
6HR MIN TEMP:  52; 6HR MAX TEMP:  61; 6HR PCP:  0.49;

DICKINSON      RAIN      57  54  89 NW20      29.64R FOG
6HR MIN TEMP:  58; 6HR MAX TEMP:  63; 6HR PCP:  0.18;

HETTINGER      LGT RAIN  59  56  89 NW14      29.63F
6HR MIN TEMP:  58; 6HR MAX TEMP:  64; 6HR PCP:  0.06;

$$

 *****  OTHER AIRPORT OBSERVATIONS IN OUR AREA  *****

CITY           SKY/WX    TMP DP  RH WIND       PRES   REMARKS
WALHALLA       MOCLDY    63  63 100 SE14      29.72F
GRAFTON AIRPOR CLOUDY    61  61 100 SE12      29.74F FOG
VALLEY CITY AR LGT RAIN  59  59 100 E16G26    29.65F
CANDO          CLOUDY    63  59  88 SE21G29   29.67F
CAVALIER APRT  LGT RAIN  63  63 100 SE9       29.73F
GWINNER          N/A     66  66 100 SE14      29.65S
SHEYENNE NWR     N/A     63  62  96 SE14      29.95
ROLLA          NOT AVBL
 ***** THE ABOVE OBSERVATIONS ARE NON NWS ARE NOT QUALITY
       CONTROLLED AND MAY MIS-REPORT RAIN FOR SNOW...
$$

  *****  WEATHER ACROSS NORTHERN MINNESOTA  *****

CITY           SKY/WX    TMP DP  RH WIND       PRES   REMARKS
FLAG ISLAND    DRIZZLE   59  55  88 SE6       29.83F
WARROAD        LGT RAIN  63  57  82 E7        29.82F
ROSEAU         LGT RAIN  61  55  82 E7        29.80F
HALLOCK        LGT RAIN  63  61  94 E12       29.74F
THF RVR FALLS  CLOUDY    63  57  82 E13       29.76F
6HR MIN TEMP:  63; 6HR MAX TEMP:  66; 6HR PCP:  0.05;

BAUDETTE       LGT RAIN  62  58  86 SE10      29.85F
6HR MIN TEMP:  59; 6HR MAX TEMP:  66; 6HR PCP:  0.03;

WASKISH        CLOUDY    63  55  77 E9        29.82F
CROOKSTON      DRIZZLE   61  59  94 SE15G22   29.73F
$$
  *****  WEATHER ACROSS CENTRAL AND WEST MINNESOTA  *****

CITY           SKY/WX    TMP DP  RH WIND       PRES   REMARKS
FOSSTON        LGT RAIN  61  57  88 E12G21    29.76F
BEMIDJI        LGT RAIN  64  54  70 E12G17    29.80F
PARK RAPIDS    CLOUDY    67  56  67 SE17G24   29.79F
6HR MIN TEMP:  61; 6HR MAX TEMP:  69; 6HR PCP: TRACE;

ELBOW LAKE     CLOUDY    65  62  93 SE9       29.71F
6HR MIN TEMP:  62; 6HR MAX TEMP:  67; 6HR PCP:  0.05;

WADENA         CLOUDY    64  57  77 SE21      29.76F
DETROIT LAKES  HVY RAIN  63  59  88 SE17G23   29.75F
MOORHEAD       DRIZZLE   64  61  88 SE13G20   29.70F
FERGUS FALLS   CLOUDY    64  61  88 SE15      29.71F
MORRIS MN      PTSUNNY   70  63  78 S21G32    29.70F
STAPLES        CLOUDY    63  61  94 SE8       29.80F
$$
  *****  WEATHER ELSEWHERE ACROSS MINNESOTA  *****

CITY           SKY/WX    TMP DP  RH WIND       PRES   REMARKS
DULUTH         CLOUDY    57  47  69 E18       29.93F
6HR MIN TEMP:  55; 6HR MAX TEMP:  62;

INTRNTL FALLS  CLOUDY    65  54  67 SE12      29.88F
6HR MIN TEMP:  61; 6HR MAX TEMP:  69; 6HR PCP: TRACE;

ELY            CLOUDY    61  52  72 SE9       29.96F
CLOQUET        CLOUDY    54  41  62 E10G17    29.92S
WHEATON        CLOUDY    66  61  82 SE13      29.70S
BRAINERD       LGT RAIN  62  60  93 SE6       29.84F
6HR MIN TEMP:  61; 6HR MAX TEMP:  70; 6HR PCP:  0.08;

HIBBING        CLOUDY    62  52  69 E13       29.90F
6HR MIN TEMP:  57; 6HR MAX TEMP:  64; 6HR PCP: TRACE;

ALEXANDRIA     CLOUDY    65  61  87 SE16      29.76F
6HR MIN TEMP:  61; 6HR MAX TEMP:  70; 6HR PCP:  0.02;

SAINT CLOUD    CLOUDY    66  63  90 SE9       29.82F
6HR MIN TEMP:  64; 6HR MAX TEMP:  75; 6HR PCP:  0.39;

MINNEAPOLIS    CLOUDY    71  61  70 SE21      29.86F
6HR MIN TEMP:  65; 6HR MAX TEMP:  77; 6HR PCP: TRACE;

$$

  *****  WEATHER ACROSS SOUTH DAKOTA  *****

CITY           SKY/WX    TMP DP  RH WIND       PRES   REMARKS
SIOUX FALLS    CLOUDY    67  60  78 S16G30    29.72F
6HR MIN TEMP:  63; 6HR MAX TEMP:  72; 6HR PCP:  0.05;

BROOKINGS      PTSUNNY   66  61  82 S20G32    29.72S
WATERTOWN      CLOUDY    66  61  84 S20G28    29.67F
6HR MIN TEMP:  63; 6HR MAX TEMP:  69; 6HR PCP:  0.16;

HURON          PTSUNNY   69  61  75 S14       29.62S THUNDER
6HR MIN TEMP:  63; 6HR MAX TEMP:  72; 6HR PCP:  0.13;

SISSETON         N/A     68  62  81 S16       29.65F
ABERDEEN       LGT RAIN  66  62  87 S15G25    29.61F
6HR MIN TEMP:  63; 6HR MAX TEMP:  69; 6HR PCP:  0.49;

MITCHELL       PTSUNNY   70  61  73 SE18G30   29.65R
PIERRE         CLOUDY    67  57  70 S10       29.58S
6HR MIN TEMP:  63; 6HR MAX TEMP:  72; 6HR PCP:  0.02;

MOBRIDGE       CLOUDY    70  58  65 SE10      29.55F
RAPID CITY     LGT RAIN  54  49  83 NW32G44   29.63F
6HR MIN TEMP:  54; 6HR MAX TEMP:  70; 6HR PCP:  1.30;

$$

  *****  SOME WEATHER IN NEARBY STATES *****

CITY           SKY/WX    TMP DP  RH WIND       PRES   REMARKS
GLASGOW MT     PTSUNNY   58  37  45 N16       29.82S
6HR MIN TEMP:  52; 6HR MAX TEMP:  60;

GREAT FALLS MT MOSUNNY   57  21  24 NE16G22   29.90S
6HR MIN TEMP:  50; 6HR MAX TEMP:  58;

CHEYENNE WY    LGT RAIN  50  45  83 N15G22    29.76R
6HR MIN TEMP:  51; 6HR MAX TEMP:  58; 6HR PCP:  0.01;

SCOTTSBLUFF NE LGT RAIN  59  54  83 NW10      29.64R
6HR MIN TEMP:  57; 6HR MAX TEMP:  63; 6HR PCP:  0.11;

OMAHA NE       CLOUDY    71  61  70 S20       29.76F
6HR MIN TEMP:  67; 6HR MAX TEMP:  73; 6HR PCP:  0.19;

DES MOINES IA  PTSUNNY   73  59  61 S18       29.88S
6HR MIN TEMP:  72; 6HR MAX TEMP:  79; 6HR PCP: TRACE;

DAVENPORT IA   LGT RAIN  69  60  73 SW12      30.00F
6HR MIN TEMP:  68; 6HR MAX TEMP:  83; 6HR PCP: TRACE;

CHICAGO IL     MOCLDY    65  55  70 NE7       30.06F
6HR MIN TEMP:  65; 6HR MAX TEMP:  77;

EAU CLAIRE WI  CLOUDY    75  55  49 SE12      29.93S
6HR MIN TEMP:  64; 6HR MAX TEMP:  78;

LA CROSSE WI   TSTM      73  61  65 S18G31    29.95R
6HR MIN TEMP:  73; 6HR MAX TEMP:  82;

$$

  *****  SOME NATIONAL WEATHER *****

CITY           SKY/WX    TMP DP  RH WIND       PRES   REMARKS
LA GUARDIA NY  PTCLDY    66  42  41 SE8       30.22S
6HR MIN TEMP:  63; 6HR MAX TEMP:  67;

RALEIGH NC     CLOUDY    74  56  53 SE6       30.14R
6HR MIN TEMP:  74; 6HR MAX TEMP:  83;

ATLANTA GA     PTCLDY    78  49  35 SE7       30.11S
6HR MIN TEMP:  76; 6HR MAX TEMP:  82;

NEW ORLEANS LA PTCLDY    79  66  64 E8        30.01F
6HR MIN TEMP:  79; 6HR MAX TEMP:  85;

OKLAHOMA CITY  HAIL      66  64  94 N14       29.81F VSB 3/4
6HR MIN TEMP:  60; 6HR MAX TEMP:  76; 6HR PCP:  0.49;

ALBUQUERQUE NM CLOUDY    69  34  27 SW12      29.84F
6HR MIN TEMP:  60; 6HR MAX TEMP:  71; 6HR PCP:  0.16;

SALT LAKE CITY CLOUDY    58  45  62 N6        29.71F
6HR MIN TEMP:  53; 6HR MAX TEMP:  65; 6HR PCP:  0.02;

LOS ANGELES CA MOSUNNY   61  50  67 W16       29.85F
6HR MIN TEMP:  60; 6HR MAX TEMP:  64;




USA.gov is the U.S. government's official web portal to all federal, state and local government web resources and services.